Flag for U.S.A. Weather past 2 weeks in French Lick, Indiana, U.S.A.

Now
88 °F

Sunny.


Feels Like: 93 °F
Forecast: 66 / 88 °F
Wind: 3 mph from Northwest

Location: Huntingburg Airport

Current Time: Sep 1, 2015 at 7:16:50 PM

Latest Report: Sep 1, 2015 at 5:55 PM


Visibility: 10 mi

Pressure: 30.09 "Hg

Humidity: 55%

Dew point: 70 °F

Location of French LickLocation

Historic Weather in French Lick — Graph

°F

French Lick temperature yesterday

Maximum temperature yesterday: 88 °F (at 4:15 PM)
Minimum temperature yesterday: 66 °F (at 4:55 AM)
Average temperature yesterday: 75 °F

Past Weeks' High & Low Weather Summary

 TemperatureHumidityPressure
High88 °F (Aug 23, 4:35 PM)94% (Aug 18, 3:35 AM)30.19 "Hg (Aug 18, 3:35 AM)
Low52 °F (Aug 25, 6:15 AM)39% (Aug 24, 2:35 PM)29.78 "Hg (Aug 19, 5:55 PM)
Average71 °F74%30.05 "Hg
* Reported Aug 17 5:35 PM — Sep 1 5:35 PM, French Lick, Weather by CustomWeather, © 2015

Note: Actual official high and low records may vary slightly from our data, if they occured in-between our weather recording intervals... More about our weather records

Advertising

French Lick weather history for previous 24 hours

 ConditionsComfort  
Time TempWeatherWind HumidityBarometerVisibility
5:35 PM
Tue, Sep 1
88 °FSunny.5 mph55%30.09 "Hg10 mi
5:15 PM84 °FSunny.3 mph62%30.09 "Hg10 mi
4:55 PM82 °FSunny.3 mph66%30.10 "Hg10 mi
4:35 PM82 °FScattered clouds.5 mph62%30.10 "Hg10 mi
4:15 PM88 °FOvercast.5 mph55%30.10 "Hg10 mi
3:55 PM84 °FMostly cloudy.9 mph55%30.10 "Hg10 mi
3:35 PM88 °FThundershowers. Mostly cloudy.15 mph49%30.11 "Hg10 mi
3:15 PM88 °FBroken clouds.5 mph49%30.11 "Hg10 mi
2:55 PM88 °FPassing clouds.3 mph49%30.10 "Hg10 mi
2:35 PM88 °FSunny.3 mph49%30.11 "Hg10 mi
2:15 PM88 °FPassing clouds.No wind52%30.12 "Hg10 mi
1:55 PM88 °FPartly sunny.7 mph52%30.12 "Hg10 mi
1:35 PM88 °FScattered clouds.No wind49%30.13 "Hg10 mi
1:15 PM88 °FPartly sunny.6 mph49%30.13 "Hg10 mi
12:55 PM86 °FScattered clouds.3 mph55%30.14 "Hg10 mi
12:35 PM84 °FScattered clouds.No wind58%30.14 "Hg10 mi
12:15 PM84 °FScattered clouds.6 mph62%30.15 "Hg10 mi
11:55 AM84 °FSunny.7 mph58%30.16 "Hg10 mi
11:35 AM82 °FSunny.3 mph62%30.16 "Hg10 mi
11:15 AM82 °FSunny.5 mph66%30.16 "Hg10 mi
10:55 AM81 °FSunny.3 mph66%30.16 "Hg10 mi
10:35 AM79 °FSunny.5 mph70%30.16 "Hg10 mi
10:15 AM77 °FSunny.6 mph74%30.15 "Hg10 mi
9:55 AM75 °FSunny.7 mph78%30.15 "Hg10 mi
9:35 AM73 °FSunny.No wind78%30.14 "Hg10 mi
9:15 AM72 °FSunny.No wind83%30.15 "Hg10 mi
8:55 AM70 °FSunny.No wind88%30.15 "Hg8 mi
8:35 AM68 °FSunny.No wind88%30.15 "Hg6 mi
8:15 AM66 °FClear.3 mph94%30.14 "Hg4 mi
7:55 AM66 °FPassing clouds.No wind88%30.15 "Hg4 mi
7:35 AM66 °FPartly cloudy.No wind88%30.15 "Hg3 mi
7:15 AM66 °FPassing clouds.No wind88%30.14 "Hg5 mi
6:55 AM66 °FPassing clouds.No wind88%30.13 "Hg7 mi
6:35 AM66 °FOvercast.No wind88%30.13 "Hg8 mi
6:15 AM66 °FPassing clouds.3 mph88%30.12 "Hg5 mi
5:55 AM66 °FPassing clouds.No wind88%30.12 "Hg5 mi
5:35 AM66 °FPassing clouds.No wind88%30.11 "Hg5 mi
5:15 AM66 °FPassing clouds.3 mph88%30.11 "Hg7 mi
4:55 AM66 °FPassing clouds.5 mph88%30.11 "Hg7 mi
4:35 AM66 °FPassing clouds.3 mph88%30.11 "Hg5 mi
4:15 AM66 °FPassing clouds.No wind94%30.11 "Hg5 mi
3:55 AM66 °FClear.No wind88%30.11 "Hg5 mi
3:35 AM66 °FClear.No wind94%30.11 "Hg7 mi
3:15 AM66 °FClear.No wind88%30.11 "Hg5 mi
2:55 AM66 °FClear.No wind94%30.10 "Hg7 mi
2:35 AM66 °FClear.No wind94%30.11 "Hg8 mi
2:15 AM66 °FClear.No wind88%30.11 "Hg10 mi
1:55 AM66 °FClear.No wind88%30.11 "Hg8 mi
1:35 AM68 °FClear.No wind83%30.11 "Hg10 mi
1:15 AM70 °FClear.No wind83%30.11 "Hg10 mi
12:55 AM70 °FClear.No wind83%30.10 "Hg10 mi
11:35 PM
Mon, Aug 31
72 °FClear.5 mph78%30.10 "Hg10 mi
10:55 PM72 °FClear.No wind83%30.10 "Hg10 mi
10:35 PM72 °FClear.3 mph78%30.10 "Hg10 mi
10:15 PM72 °FClear.3 mph83%30.09 "Hg6 mi
9:55 PM72 °FClear.3 mph83%30.09 "Hg10 mi
9:35 PM73 °FClear.3 mph78%30.09 "Hg10 mi
9:15 PM75 °FSunny.5 mph74%30.08 "Hg10 mi
8:55 PM77 °FSunny.3 mph69%30.08 "Hg10 mi
8:35 PM79 °FSunny.3 mph65%30.07 "Hg10 mi
8:15 PM81 °FSunny.3 mph62%30.07 "Hg10 mi
7:55 PM81 °FSunny.3 mph62%30.07 "Hg10 mi
7:35 PM82 °FSunny.5 mph58%30.07 "Hg10 mi
Weather by CustomWeather, © 2015

See weather overviewHow to use our weather pages